Aérodrome :
LOGIN :

S'inscrire | Disclaimer

   EN    FR    IT 

 










Légende :    VFR   VFR Marginal   IFR   IFR Intensif   IFR Très Intensif
Visi : 
Plafond : 
>= 8 km
>= 3000ft
5 à 8 km
1000 à 3000 ft
1500m à 5 km
500 à 1000 ft
800 à 1500m
200 à 500 ft
< 800m
< 200 ft
Symboles :   Orages  Brouillard  Fortes neiges  Fortes précipitations  Vent > 20 kt
SIGMETs :   Divers  Orages  Givrage  Turbulence  Onde Orograph.  Cendres Volcan.







- Altitude de l'aérodrome : 26 ft
- Code IATA : BIA
- Voir les cartes d'approche


LFKB - Bastia

DERNIER METAR :
  • 170730Z AUTO 35009KT 310V030 CAVOK 29/14 Q1011 NOSIG

METARs EXPIRÉS :
  • 170700Z AUTO 22005KT 190V260 CAVOK 27/16 Q1011 NOSIG
  • 170630Z AUTO 20006KT 170V230 CAVOK 26/16 Q1011 BECMG 30010G20KT
  • 170600Z AUTO 30005KT 250V320 CAVOK 27/16 Q1010 NOSIG
  • 170530Z AUTO 26010KT 230V290 CAVOK 25/15 Q1010 NOSIG
  • 170500Z AUTO 25010KT 220V290 CAVOK 25/14 Q1010 NOSIG

TAF TAF LFKB
Valide du 17 à 03h jusqu'au 18 à 03h UTC


170200Z 1703/1803 30010G20KT 9999 FEW050 SCT130 TX30/1712Z TN22/1803Z
ATIS : +33 4 95 59 19 40
Pas de NOTAMs connus pour ce terrain.



MET'MAP, la Météo Aéronautique d'un coup d'oeil ! - Copyright ORBIFLY Décembre 2007 - Disclaimer

ORBIFLY MET'MAP TEAM :

Programmation & Développement : Alexandra Zaïnal
Conception & Développement : Baudouin d'Aumeries
Co-Programmation & Développement : Marc-Olivier Méhu
Soutien technique & logistique : Manuel Goepfert

Contact : metmap@orbifly.com




SOURCES & CREDITS :

   NOAA